Location: Chateh
(58.6667°N, 118.6000°W)
Time: 19:07:59
(UTC+00:00)

Gurwin Techsat 1B - Pass Details

Date: 08 December 2023
Orbit: 810 x 813 km, 98.9° (Epoch: 21 February)

Event Time Altitude Azimuth Distance (km) Brightness Sun altitude
Rises 12:06:29 0° 17° (NNE) 3,353 12.1 -32.1°
Reaches altitude 10° 12:08:50 10° 15° (NNE) 2,418 11.3 -31.8°
Enters shadow 12:11:00 25° 10° (N) 1,602 10.2 -31.6°
